Year,Month,Day,Hour,Minute,Value (Times are PST for temperature in C)
2011,09,21,11,02,16.80
2011,09,21,11,03,16.80
2011,09,21,11,04,16.80
2011,09,21,11,05,16.80
2011,09,21,11,06,16.80
2011,09,21,11,07,16.80
2011,09,21,11,08,16.80
2011,09,21,11,09,16.80
2011,09,21,11,10,16.90
2011,09,21,11,11,16.90
2011,09,21,11,12,16.90
2011,09,21,11,13,16.90
2011,09,21,11,14,16.90
2011,09,21,11,15,17.00
2011,09,21,11,16,17.10
2011,09,21,11,17,17.30
2011,09,21,11,18,17.30
2011,09,21,11,19,17.50
2011,09,21,11,20,17.50
2011,09,21,11,21,17.70
2011,09,21,11,22,17.70
2011,09,21,11,23,17.80
2011,09,21,11,24,17.90
2011,09,21,11,25,17.80
2011,09,21,11,26,17.80
2011,09,21,11,27,17.80
2011,09,21,11,28,17.80
2011,09,21,11,29,17.70
2011,09,21,11,30,17.70
2011,09,21,11,31,17.70
2011,09,21,11,32,17.70
2011,09,21,11,33,17.70
2011,09,21,11,34,17.70
2011,09,21,11,35,17.70
2011,09,21,11,36,17.70
2011,09,21,11,37,17.80
2011,09,21,11,38,17.80
2011,09,21,11,39,17.80
2011,09,21,11,40,17.80
2011,09,21,11,41,17.90
2011,09,21,11,42,17.90
2011,09,21,11,43,17.90
2011,09,21,11,44,17.90
2011,09,21,11,45,17.90
2011,09,21,11,46,17.90
2011,09,21,11,47,17.90
2011,09,21,11,48,17.90
2011,09,21,11,49,18.00
2011,09,21,11,50,18.10
2011,09,21,11,51,18.10
2011,09,21,11,52,18.10
2011,09,21,11,53,17.90
2011,09,21,11,54,17.90
2011,09,21,11,55,17.80
2011,09,21,11,56,17.70
2011,09,21,11,57,17.70
2011,09,21,11,58,17.70
2011,09,21,11,59,17.70
2011,09,21,12,00,17.70
2011,09,21,12,01,17.70
2011,09,21,12,02,17.70
2011,09,21,12,03,17.70
2011,09,21,12,04,17.70
2011,09,21,12,05,17.60
2011,09,21,12,06,17.50
2011,09,21,12,07,17.40
2011,09,21,12,08,17.30
2011,09,21,12,09,17.20
2011,09,21,12,10,17.10
2011,09,21,12,11,17.00
2011,09,21,12,12,17.00
2011,09,21,12,13,16.90
2011,09,21,12,14,16.90
2011,09,21,12,15,16.90
2011,09,21,12,16,16.80
2011,09,21,12,17,16.80
2011,09,21,12,18,16.80
2011,09,21,12,19,16.80
2011,09,21,12,20,16.80
2011,09,21,12,21,16.80
2011,09,21,12,22,16.80
2011,09,21,12,23,16.90
2011,09,21,12,24,17.00
2011,09,21,12,25,17.10
2011,09,21,12,26,17.30
2011,09,21,12,27,17.40
2011,09,21,12,28,17.60
2011,09,21,12,29,17.70
2011,09,21,12,30,17.80
2011,09,21,12,31,17.90
2011,09,21,12,32,17.90
2011,09,21,12,33,17.90
2011,09,21,12,34,18.00
2011,09,21,12,35,18.10
2011,09,21,12,36,18.20
2011,09,21,12,37,18.30
2011,09,21,12,38,18.40
2011,09,21,12,39,18.50
2011,09,21,12,40,18.60
2011,09,21,12,41,18.60
2011,09,21,12,42,18.70
2011,09,21,12,43,18.70
2011,09,21,12,44,18.70
2011,09,21,12,45,18.70
2011,09,21,12,46,18.60
2011,09,21,12,47,18.50
2011,09,21,12,48,18.50
2011,09,21,12,49,18.50
2011,09,21,12,50,18.40
2011,09,21,12,51,18.40
2011,09,21,12,52,18.50
2011,09,21,12,53,18.50
2011,09,21,12,54,18.50
2011,09,21,12,55,18.50
2011,09,21,12,56,18.50
2011,09,21,12,57,18.50
2011,09,21,12,58,18.60
2011,09,21,12,59,18.60
2011,09,21,13,00,18.60
2011,09,21,13,01,18.60
2011,09,21,13,02,18.60
2011,09,21,13,03,18.60
2011,09,21,13,04,18.60
2011,09,21,13,05,18.50
2011,09,21,13,06,18.50
2011,09,21,13,07,18.40
2011,09,21,13,08,18.40
2011,09,21,13,09,18.40
2011,09,21,13,10,18.40
2011,09,21,13,11,18.30
2011,09,21,13,12,18.30
2011,09,21,13,13,18.40
2011,09,21,13,14,18.40
2011,09,21,13,15,18.40
2011,09,21,13,16,18.40
2011,09,21,13,17,18.40
2011,09,21,13,18,18.40
2011,09,21,13,19,18.30
2011,09,21,13,20,18.30
2011,09,21,13,21,18.20
2011,09,21,13,22,18.20
2011,09,21,13,23,18.20
2011,09,21,13,24,18.20
2011,09,21,13,25,18.00
2011,09,21,13,26,17.90
2011,09,21,13,27,17.80
2011,09,21,13,28,17.70
2011,09,21,13,29,17.60
2011,09,21,13,30,17.50
2011,09,21,13,31,17.40
2011,09,21,13,32,17.30
2011,09,21,13,33,17.30
2011,09,21,13,34,17.10
2011,09,21,13,35,17.10
2011,09,21,13,36,17.00
2011,09,21,13,37,16.90
2011,09,21,13,38,16.90
2011,09,21,13,39,16.90
2011,09,21,13,40,16.90
2011,09,21,13,41,16.90
2011,09,21,13,42,16.90
2011,09,21,13,43,16.90
2011,09,21,13,44,16.90
2011,09,21,13,45,17.00
2011,09,21,13,46,17.00
2011,09,21,13,47,17.10
2011,09,21,13,48,17.10
2011,09,21,13,49,17.20
2011,09,21,13,50,17.20
2011,09,21,13,51,17.10
2011,09,21,13,52,17.10
2011,09,21,13,53,17.10
2011,09,21,13,54,17.00
2011,09,21,13,55,17.00
2011,09,21,13,56,17.00
2011,09,21,13,57,17.00
2011,09,21,13,58,17.00
2011,09,21,13,59,17.00
2011,09,21,14,00,17.00
2011,09,21,14,01,17.00
2011,09,21,14,02,16.90
2011,09,21,14,03,16.90
2011,09,21,14,04,16.80
2011,09,21,14,05,16.80
2011,09,21,14,06,16.70
2011,09,21,14,07,16.70
2011,09,21,14,08,16.60
2011,09,21,14,09,16.60
2011,09,21,14,10,16.60
2011,09,21,14,11,16.60
2011,09,21,14,12,16.60
2011,09,21,14,13,16.60
2011,09,21,14,14,16.60
2011,09,21,14,15,16.70
2011,09,21,14,16,16.70
2011,09,21,14,17,16.70
2011,09,21,14,18,16.70
2011,09,21,14,19,16.80
2011,09,21,14,20,16.80
2011,09,21,14,21,16.90
2011,09,21,14,22,16.90
2011,09,21,14,23,16.90
2011,09,21,14,24,17.00
2011,09,21,14,25,17.00
2011,09,21,14,26,17.00
2011,09,21,14,27,17.10
2011,09,21,14,28,17.20
2011,09,21,14,29,17.20
2011,09,21,14,30,17.30
2011,09,21,14,31,17.30
2011,09,21,14,32,17.30
2011,09,21,14,33,17.30
2011,09,21,14,34,17.40
2011,09,21,14,35,17.40
2011,09,21,14,36,17.40
2011,09,21,14,37,17.50
2011,09,21,14,38,17.40
2011,09,21,14,39,17.40
2011,09,21,14,40,17.40
2011,09,21,14,41,17.30
2011,09,21,14,42,17.30
2011,09,21,14,43,17.30
2011,09,21,14,44,17.20
2011,09,21,14,45,17.10
2011,09,21,14,46,17.00
2011,09,21,14,47,17.00
2011,09,21,14,48,17.00
2011,09,21,14,49,17.00
2011,09,21,14,50,17.00
2011,09,21,14,51,17.00
2011,09,21,14,52,17.00
2011,09,21,14,53,17.10
2011,09,21,14,54,17.10
2011,09,21,14,55,17.20
2011,09,21,14,56,17.20
2011,09,21,14,57,17.20
2011,09,21,14,58,17.30
2011,09,21,14,59,17.30
2011,09,21,15,00,17.40
2011,09,21,15,01,17.40
2011,09,21,15,02,17.50
2011,09,21,15,03,17.60
2011,09,21,15,04,17.70
2011,09,21,15,05,17.70
2011,09,21,15,06,17.80
2011,09,21,15,07,17.80
2011,09,21,15,08,17.90
2011,09,21,15,09,17.90
2011,09,21,15,10,17.90
2011,09,21,15,11,17.80
2011,09,21,15,12,17.90
2011,09,21,15,13,17.90
2011,09,21,15,14,17.90
2011,09,21,15,15,18.10
2011,09,21,15,16,18.10
2011,09,21,15,17,18.20
2011,09,21,15,18,18.30
2011,09,21,15,19,18.40
2011,09,21,15,20,18.50
2011,09,21,15,21,18.60
2011,09,21,15,22,18.70
2011,09,21,15,23,18.80
2011,09,21,15,24,18.90
2011,09,21,15,25,18.90
2011,09,21,15,26,19.10
2011,09,21,15,27,19.10
2011,09,21,15,28,18.90
2011,09,21,15,29,18.90
2011,09,21,15,30,18.90
2011,09,21,15,31,18.90
2011,09,21,15,32,18.90
2011,09,21,15,33,18.90
2011,09,21,15,34,18.90
2011,09,21,15,35,18.90
2011,09,21,15,36,18.90
2011,09,21,15,37,18.90
2011,09,21,15,38,18.90
2011,09,21,15,39,18.90
2011,09,21,15,40,19.00
2011,09,21,15,41,19.10
2011,09,21,15,42,19.10
2011,09,21,15,43,19.10
2011,09,21,15,44,19.10
2011,09,21,15,45,19.10
2011,09,21,15,46,19.10
2011,09,21,15,47,19.00
2011,09,21,15,48,18.90
2011,09,21,15,49,19.00
2011,09,21,15,50,19.10
2011,09,21,15,51,18.90
2011,09,21,15,52,18.90
2011,09,21,15,53,18.90
2011,09,21,15,54,18.90
2011,09,21,15,55,18.80
2011,09,21,15,56,18.70
2011,09,21,15,57,18.60
2011,09,21,15,58,18.60
2011,09,21,15,59,18.50
2011,09,21,16,00,18.50
2011,09,21,16,01,18.50
2011,09,21,16,02,18.40
2011,09,21,16,03,18.40
2011,09,21,16,04,18.30
2011,09,21,16,05,18.30
2011,09,21,16,06,18.20
2011,09,21,16,07,18.20
2011,09,21,16,08,18.20
2011,09,21,16,09,18.20
2011,09,21,16,10,18.20
2011,09,21,16,11,18.20
2011,09,21,16,12,18.20
2011,09,21,16,13,18.20
2011,09,21,16,14,18.10
2011,09,21,16,15,18.10
2011,09,21,16,16,18.10
2011,09,21,16,17,18.10
2011,09,21,16,18,18.10
2011,09,21,16,19,18.10
2011,09,21,16,20,18.10
2011,09,21,16,21,18.10
2011,09,21,16,22,18.10
2011,09,21,16,23,18.10
2011,09,21,16,24,18.10
2011,09,21,16,25,18.10
2011,09,21,16,26,18.10
2011,09,21,16,27,18.10
2011,09,21,16,28,18.10
2011,09,21,16,29,18.10
2011,09,21,16,30,18.20
2011,09,21,16,31,18.20
2011,09,21,16,32,18.20
2011,09,21,16,33,18.20
2011,09,21,16,34,18.20
2011,09,21,16,35,18.20
2011,09,21,16,36,18.20
2011,09,21,16,37,18.20
2011,09,21,16,38,18.20
2011,09,21,16,39,18.20
2011,09,21,16,40,18.20
2011,09,21,16,41,18.20
2011,09,21,16,42,18.20
2011,09,21,16,43,18.20
2011,09,21,16,44,18.20
2011,09,21,16,45,18.20
